Location: Unspecified
(48.2082°N, 0.0000°E)
Time: 02:11:12
(UTC+00:00)

Tiros 1 - All Passes

Search period start: 25 June 2019 00:00
Search period end: 05 July 2019 00:00
Orbit: 631 x 664 km, 48.4° (Epoch: 24 June)

Date Brightness Start Highest point End Pass type
(mag) Time Alt. Az. Time Alt. Az. Time Alt. Az.
25 Jun - 00:42:47 10° W 00:47:30 88° N 00:52:10 10° E visible
25 Jun - 02:25:04 10° W 02:29:43 74° SSW 02:34:20 10° ESE visible
25 Jun - 04:07:33 10° W 04:11:30 28° SW 04:15:25 10° SSE daylight
25 Jun - 21:45:25 10° SSW 21:49:33 31° SSE 21:53:40 10° E visible
25 Jun - 23:26:41 10° WSW 23:31:24 77° SSE 23:36:04 10° E visible
26 Jun - 01:08:56 10° W 01:13:38 89° N 01:18:18 10° E visible
26 Jun - 02:51:13 10° W 02:55:43 50° SSW 03:00:11 10° SE visible
26 Jun - 04:34:32 10° WSW 04:37:08 15° SW 04:39:44 10° S daylight
26 Jun - 20:31:06 10° S 20:33:56 16° SE 20:36:45 10° E daylight
26 Jun - 22:10:50 10° SW 22:15:24 51° SSE 22:19:57 10° E visible
26 Jun - 23:52:47 10° W 23:57:30 89° N 00:02:11 10° E visible
27 Jun - 01:35:04 10° W 01:39:44 76° SSW 01:44:22 10° ESE visible
27 Jun - 03:17:31 10° W 03:21:33 30° SW 03:25:33 10° SSE visible
27 Jun - 20:55:31 10° SSW 20:59:36 29° SE 21:03:39 10° E visible
27 Jun - 22:36:41 10° WSW 22:41:24 75° SSE 22:46:05 10° E visible
28 Jun - 00:18:56 10° W 00:23:38 88° N 00:28:19 10° E visible
28 Jun - 02:01:13 10° W 02:05:45 52° SSW 02:10:15 10° SE visible
28 Jun - 03:44:22 10° W 03:47:13 16° SW 03:50:01 10° S daylight
28 Jun - 19:41:22 10° S 19:43:59 15° SE 19:46:37 10° ESE daylight
28 Jun - 21:20:52 10° SW 21:25:26 49° SSE 21:29:58 10° E visible
28 Jun - 23:02:46 10° W 23:07:31 89° NNE 23:12:12 10° E visible
29 Jun - 00:45:04 10° W 00:49:45 78° SSW 00:54:24 10° ESE visible
29 Jun - 02:27:29 10° W 02:31:36 31° SSW 02:35:41 10° SSE visible
29 Jun - 20:05:38 10° SSW 20:09:38 28° SE 20:13:38 10° E daylight
29 Jun - 21:46:41 10° WSW 21:51:25 73° SSE 21:56:06 10° E visible
29 Jun - 23:28:55 10° W 23:33:39 87° N 23:38:20 10° E visible
30 Jun - 01:11:11 10° W 01:15:46 55° SSW 01:20:18 10° SE visible
30 Jun - 02:54:14 10° W 02:57:16 17° SW 03:00:18 10° S visible
30 Jun - 18:51:40 10° SSE 18:54:03 14° SE 18:56:27 10° ESE daylight
30 Jun - 20:30:55 10° SW 20:35:27 46° SSE 20:39:58 10° E daylight
30 Jun - 22:12:46 10° W 22:17:31 90° SSE 22:22:13 10° E visible
30 Jun - 23:55:03 10° W 23:59:46 80° SSW 00:04:26 10° ESE visible
01 Jul - 01:37:27 10° W 01:41:39 33° SSW 01:45:48 10° SSE visible
01 Jul - 19:15:44 10° SSW 19:19:41 26° SE 19:23:36 10° E daylight
01 Jul - 20:56:42 10° WSW 21:01:26 70° SSE 21:06:07 10° E visible
01 Jul - 22:38:54 10° W 22:43:39 87° N 22:48:22 10° E visible
02 Jul - 00:21:11 10° W 00:25:48 57° SSW 00:30:22 10° SE visible
02 Jul - 02:04:07 10° W 02:07:20 19° SW 02:10:32 10° S visible
02 Jul - 18:02:00 10° SSE 18:04:07 13° SE 18:06:13 10° ESE daylight
02 Jul - 19:40:57 10° SW 19:45:29 44° SSE 19:49:59 10° E daylight
02 Jul - 21:22:45 10° W 21:27:31 88° SSE 21:32:14 10° E visible
02 Jul - 23:05:03 10° W 23:09:47 82° SSW 23:14:28 10° ESE visible
03 Jul - 00:47:25 10° W 00:51:42 35° SSW 00:55:54 10° SE visible
03 Jul - 18:25:52 10° SSW 18:29:43 25° SE 18:33:33 10° E daylight
03 Jul - 20:06:42 10° WSW 20:11:26 68° SSE 20:16:08 10° E daylight
03 Jul - 21:48:54 10° W 21:53:39 87° N 21:58:22 10° E visible
03 Jul - 23:31:10 10° W 23:35:49 60° SSW 23:40:24 10° ESE visible
04 Jul - 01:14:01 10° W 01:17:24 20° SW 01:20:46 10° S visible
04 Jul - 17:12:25 10° SSE 17:14:10 12° SE 17:15:56 10° ESE daylight
04 Jul - 18:51:00 10° SW 18:55:30 42° SSE 18:59:59 10° E daylight
04 Jul - 20:32:44 10° W 20:37:31 87° SSE 20:42:15 10° E visible
04 Jul - 22:15:02 10° W 22:19:47 84° S 22:24:29 10° ESE visible
